| time (UTC) | temp F | wind direction | speed knots | gust knots | rain 1hr in | rain 24hr in | rain mn in | humidity % | barometer mb |
| 20260831190805 | 50 | 346 | 1.7 | 4.3 | 0.00 | 0.00 | 0.00 | 83 | 1001.0 |
| 20260831180305 | 46 | 268 | 2.6 | 5.2 | 0.00 | 0.00 | 0.00 | 91 | 1001.7 |
| 20260831170804 | 44 | 358 | 1.7 | 2.6 | 0.00 | 0.00 | 0.00 | 95 | 1002.2 |
| 20260831170304 | 44 | 333 | 1.7 | 5.2 | 0.00 | 0.00 | 0.00 | 95 | 1002.3 |
| 20260831160805 | 43 | 325 | 2.6 | 4.3 | 0.00 | 0.00 | 0.00 | 96 | 1002.6 |
| 20260831160304 | 43 | 281 | 4.3 | 5.2 | 0.00 | 0.00 | 0.00 | 97 | 1002.7 |
| 20260831150804 | 38 | 279 | 2.6 | 4.3 | 0.00 | 0.00 | 0.00 | 99 | 1003.4 |
| 20260831150304 | 38 | 296 | 2.6 | 4.3 | 0.00 | 0.00 | 0.00 | 99 | 1003.5 |
| 20260831140804 | 38 | 286 | 1.7 | 4.3 | 0.00 | 0.01 | 0.00 | 98 | 1004.0 |
| 20260831140305 | 38 | 277 | 2.6 | 6.1 | 0.00 | 0.01 | 0.00 | 98 | 1004.1 |
| 20260831130804 | 35 | 279 | 2.6 | 4.3 | 0.00 | 0.02 | 0.00 | 98 | 1004.5 |
| 20260831130304 | 35 | 158 | 3.5 | 5.2 | 0.00 | 0.02 | 0.00 | 98 | 1004.6 |
| 20260831120303 | 31 | 264 | 1.7 | 2.6 | 0.00 | 0.04 | 0.00 | 98 | 1005.5 |
| 20260831110803 | 31 | 278 | 1.7 | 2.6 | 0.00 | 0.09 | 0.00 | 98 | 1006.4 |
| 20260831110303 | 31 | 279 | 1.7 | 4.3 | 0.00 | 0.18 | 0.00 | 98 | 1006.5 |
| 20260831100803 | 31 | 276 | 1.7 | 2.6 | 0.00 | 0.26 | 0.00 | 98 | 1007.1 |
| 20260831100303 | 31 | 280 | 1.7 | 2.6 | 0.00 | 0.26 | 0.00 | 98 | 1007.2 |
| 20260831090303 | 33 | 272 | 2.6 | 4.3 | 0.00 | 0.50 | 0.00 | 98 | 1007.8 |
| 20260831080303 | 34 | 279 | 2.6 | 4.3 | 0.00 | 0.65 | 0.00 | 98 | 1008.3 |
| 20260831070812 | 36 | 154 | 2.6 | 4.3 | 0.00 | 0.80 | 0.00 | 98 | 1008.7 |
| 20260831070303 | 37 | 252 | 2.6 | 4.3 | 0.00 | 0.81 | 0.00 | 98 | 1008.8 |
| 20260831060803 | 40 | 268 | 2.6 | 2.6 | 0.00 | 0.86 | 0.65 | 96 | 1009.3 |
| 20260831060303 | 40 | 271 | 2.6 | 6.1 | 0.00 | 0.86 | 0.65 | 96 | 1009.3 |
| 20260831050802 | 45 | 149 | 2.6 | 5.2 | 0.00 | 0.86 | 0.65 | 92 | 1009.7 |
| 20260831050303 | 45 | 267 | 3.5 | 4.3 | 0.00 | 0.86 | 0.65 | 92 | 1009.8 |
| 20260831040802 | 49 | 25 | 2.6 | 4.3 | 0.00 | 0.86 | 0.65 | 86 | 1010.2 |
| 20260831030304 | 50 | 278 | 4.3 | 4.3 | 0.00 | 0.86 | 0.65 | 75 | 1010.2 |
| 20260831020803 | 52 | 33 | 0.9 | 1.7 | 0.00 | 0.87 | 0.65 | 70 | 1010.5 |
| 20260831010303 | 52 | 117 | 0.9 | 2.6 | 0.00 | 0.88 | 0.65 | 69 | 1010.7 |
| 20260831000802 | 52 | 87 | 0.9 | 4.3 | 0.00 | 0.88 | 0.65 | 76 | 1011.2 |
| 20260830220804 | 51 | 281 | 1.7 | 4.3 | 0.00 | 0.88 | 0.65 | 81 | 1012.1 |
| 20260830210804 | 49 | 35 | 2.6 | 5.2 | 0.00 | 0.88 | 0.65 | 86 | 1012.4 |
| 20260830210305 | 49 | 27 | 1.7 | 6.1 | 0.00 | 0.88 | 0.65 | 84 | 1012.5 |
| 20260830200805 | 47 | 355 | 1.7 | 2.6 | 0.00 | 0.88 | 0.65 | 93 | 1012.6 |